FW9306 Weather Reports


Display with metric or nautical units.
time (UTC)temp
F
wind
direction
speed
MPH
gust
MPH
rain 1hr
in
rain 24hr
in
rain mn
in
humidity
%
barometer
mb
20260508012449 85 4 4.0 7.0 0.00 0.00 0.00 17 1010.3
20260508011947 85 261 4.0 5.0 0.00 0.00 0.00 17 1010.2
20260508011444 85 299 3.0 5.0 0.00 0.00 0.00 19 1010.1
20260508010942 85 205 2.0 3.0 0.00 0.00 0.00 17 1009.7
20260508010439 86 24 3.0 3.0 0.00 0.00 0.00 16 1009.9
20260508005936 86 346 7.0 8.0 0.00 0.00 0.00 15 1009.7
20260508005432 86 85 7.0 8.0 0.00 0.00 0.00 17 1009.6
20260508004929 85 193 2.0 2.0 0.00 0.00 0.00 19 1009.7
20260508004425 85 211 4.0 5.0 0.00 0.00 0.00 17 1009.6
20260508003922 86 309 6.0 7.0 0.00 0.00 0.00 19 1009.8
20260508003419 86 3 3.0 3.0 0.00 0.00 0.00 18 1009.6
20260508002916 85 263 4.0 5.0 0.00 0.00 0.00 16 1009.6
20260508002413 86 263 1.0 1.0 0.00 0.00 0.00 14 1009.5
20260508001908 85 68 1.0 1.0 0.00 0.00 0.00 14 1009.7
20260508001405 84 279 2.0 2.0 0.00 0.00 0.00 15 1009.5
20260508000902 86 302 2.0 3.0 0.00 0.00 0.00 15 1009.3
20260508000358 86 306 1.0 2.0 0.00 0.00 0.00 19 1009.2
20260507235854 87 323 3.0 5.0 0.00 0.00 0.00 14 1009.5
20260507235352 86 248 2.0 2.0 0.00 0.00 0.00 14 1009.3
20260507234849 86 218 1.0 1.0 0.00 0.00 0.00 14 1009.5
20260507234345 87 160 4.0 6.0 0.00 0.00 0.00 14 1009.4
20260507233842 87 127 3.0 3.0 0.00 0.00 0.00 14 1009.8
20260507233339 87 174 3.0 3.0 0.00 0.00 0.00 15 1009.5
20260507232838 86 229 1.0 2.0 0.00 0.00 0.00 16 1009.6
20260507232334 87 78 4.0 6.0 0.00 0.00 0.00 15 1009.6
20260507231831 87 217 1.0 1.0 0.00 0.00 0.00 14 1009.5
20260507231322 87 315 4.0 5.0 0.00 0.00 0.00 16 1009.6
20260507230818 87 12 3.0 5.0 0.00 0.00 0.00 14 1009.8
20260507230316 86 21 1.0 2.0 0.00 0.00 0.00 14 1009.4
20260507225815 87 333 4.0 5.0 0.00 0.00 0.00 16 1009.6
20260507225312 87 340 3.0 3.0 0.00 0.00 0.00 16 1009.6
20260507224808 85 31 3.0 3.0 0.00 0.00 0.00 16 1009.6
20260507224305 86 357 3.0 5.0 0.00 0.00 0.00 17 1009.7
20260507223801 86 351 3.0 5.0 0.00 0.00 0.00 16 1009.8
20260507223257 86 11 5.0 6.0 0.00 0.00 0.00 15 1009.6
20260507222754 87 198 0.0 0.0 0.00 0.00 0.00 14 1010.1
20260507222250 87 194 1.0 1.0 0.00 0.00 0.00 14 1009.7
20260507221748 87 187 1.0 2.0 0.00 0.00 0.00 14 1009.8
20260507221244 87 24 5.0 6.0 0.00 0.00 0.00 14 1009.9
20260507220740 85 357 4.0 6.0 0.00 0.00 0.00 15 1009.8
20260507220239 86 72 4.0 5.0 0.00 0.00 0.00 14 1010.1
20260507215734 86 7 7.0 8.0 0.00 0.00 0.00 14 1010.2
20260507215232 86 304 3.0 3.0 0.00 0.00 0.00 17 1010.2
20260507214729 87 332 2.0 3.0 0.00 0.00 0.00 15 1010.3
20260507214226 85 219 0.0 1.0 0.00 0.00 0.00 14 1010.4
20260507213722 84 263 3.0 5.0 0.00 0.00 0.00 18 1010.4
20260507213219 85 310 6.0 8.0 0.00 0.00 0.00 19 1010.5
20260507212715 84 353 7.0 8.0 0.00 0.00 0.00 15 1010.4
20260507212212 84 21 6.0 10.0 0.00 0.00 0.00 16 1010.7
20260507211709 86 25 4.0 5.0 0.00 0.00 0.00 15 1010.6
20260507211204 86 104 2.0 3.0 0.00 0.00 0.00 15 1010.8
20260507210702 85 78 4.0 5.0 0.00 0.00 0.00 16 1010.7
20260507210159 85 13 4.0 5.0 0.00 0.00 0.00 15 1010.9
20260507205655 84 199 2.0 3.0 0.00 0.00 0.00 15 1010.8
20260507205152 86 3 5.0 6.0 0.00 0.00 0.00 16 1010.8
20260507204648 86 214 2.0 3.0 0.00 0.00 0.00 15 1010.8
20260507204146 87 221 4.0 5.0 0.00 0.00 0.00 17 1011.1
20260507203644 87 221 2.0 2.0 0.00 0.00 0.00 16 1010.9
20260507203141 87 48 1.0 2.0 0.00 0.00 0.00 14 1011.1
20260507202636 87 217 6.0 6.0 0.00 0.00 0.00 15 1011.2
20260507202133 86 33 1.0 2.0 0.00 0.00 0.00 16 1011.5
20260507201628 85 171 2.0 3.0 0.00 0.00 0.00 16 1011.4
20260507201125 84 355 1.0 1.0 0.00 0.00 0.00 18 1011.4
20260507200621 85 192 1.0 2.0 0.00 0.00 0.00 15 1011.4
20260507200117 84 350 3.0 5.0 0.00 0.00 0.00 16 1011.7
20260507195614 84 158 1.0 2.0 0.00 0.00 0.00 16 1011.5
20260507195112 86 62 4.0 5.0 0.00 0.00 0.00 15 1011.6
20260507194608 87 41 6.0 9.0 0.00 0.00 0.00 16 1012.0
20260507194103 85 58 3.0 5.0 0.00 0.00 0.00 17 1012.0
20260507193600 85 35 7.0 9.0 0.00 0.00 0.00 16 1011.9
20260507193058 85 91 4.0 6.0 0.00 0.00 0.00 16 1011.9
20260507192554 84 87 4.0 6.0 0.00 0.00 0.00 17 1012.0
20260507192051 84 4 2.0 3.0 0.00 0.00 0.00 18 1012.0
20260507191546 83 249 1.0 1.0 0.00 0.00 0.00 17 1011.8
20260507191044 82 230 1.0 1.0 0.00 0.00 0.00 17 1012.0
20260507190541 82 307 3.0 3.0 0.00 0.00 0.00 20 1012.0
20260507190039 82 9 3.0 5.0 0.00 0.00 0.00 21 1012.2
20260507185538 83 280 5.0 6.0 0.00 0.00 0.00 25 1012.3
20260507185034 82 10 3.0 3.0 0.00 0.00 0.00 21 1012.3
20260507184532 82 258 2.0 2.0 0.00 0.00 0.00 21 1012.7
20260507184030 83 232 4.0 6.0 0.00 0.00 0.00 20 1012.3
20260507183525 82 331 2.0 3.0 0.00 0.00 0.00 20 1012.5
20260507183023 83 245 1.0 1.0 0.00 0.00 0.00 19 1012.8
20260507182519 82 231 1.0 2.0 0.00 0.00 0.00 20 1012.8
20260507182015 81 353 3.0 5.0 0.00 0.00 0.00 21 1012.8
20260507181512 81 281 3.0 3.0 0.00 0.00 0.00 22 1012.9
20260507181008 81 42 4.0 5.0 0.00 0.00 0.00 24 1013.0
20260507180504 81 3 4.0 5.0 0.00 0.00 0.00 20 1013.0
20260507180001 79 185 0.0 1.0 0.00 0.00 0.00 21 1013.1
20260507175457 80 342 3.0 3.0 0.00 0.00 0.00 24 1013.2
20260507174955 80 321 4.0 5.0 0.00 0.00 0.00 23 1013.2
20260507174452 80 74 0.0 0.0 0.00 0.00 0.00 21 1013.3
20260507173950 80 14 2.0 2.0 0.00 0.00 0.00 21 1013.4
20260507173447 79 289 1.0 1.0 0.00 0.00 0.00 24 1013.5
20260507172943 81 156 1.0 1.0 0.00 0.00 0.00 24 1013.4
20260507172440 79 203 1.0 1.0 0.00 0.00 0.00 23 1013.8
20260507171937 80 133 1.0 2.0 0.00 0.00 0.00 22 1013.7
20260507171432 78 65 1.0 1.0 0.00 0.00 0.00 23 1013.5
20260507170930 77 285 1.0 2.0 0.00 0.00 0.00 24 1013.7
20260507170426 77 301 3.0 3.0 0.00 0.00 0.00 24 1013.6
20260507165923 76 203 1.0 1.0 0.00 0.00 0.00 24 1013.8
20260507165419 77 192 0.0 1.0 0.00 0.00 0.00 24 1014.1
20260507164914 76 275 2.0 3.0 0.00 0.00 0.00 24 1013.8
20260507164412 76 77 1.0 2.0 0.00 0.00 0.00 24 1014.1
20260507163909 76 69 1.0 2.0 0.00 0.00 0.00 25 1014.1
20260507163406 75 0 3.0 3.0 0.00 0.00 0.00 25 1014.0
20260507162903 74 303 2.0 2.0 0.00 0.00 0.00 28 1014.1
20260507162358 74 162 1.0 1.0 0.00 0.00 0.00 26 1013.8
20260507161855 74 29 2.0 2.0 0.00 0.00 0.00 24 1014.1
20260507161351 73 237 2.0 2.0 0.00 0.00 0.00 26 1014.3
20260507160848 74 140 2.0 2.0 0.00 0.00 0.00 28 1014.5
20260507160344 75 197 1.0 1.0 0.00 0.00 0.00 27 1014.3
20260507155840 74 171 1.0 1.0 0.00 0.00 0.00 27 1014.4
20260507155336 73 146 1.0 1.0 0.00 0.00 0.00 25 1014.3
20260507154833 72 108 1.0 1.0 0.00 0.00 0.00 27 1014.3
20260507154331 74 154 0.0 1.0 0.00 0.00 0.00 26 1014.5
20260507153827 72 199 1.0 1.0 0.00 0.00 0.00 32 1014.3
20260507153324 71 49 1.0 1.0 0.00 0.00 0.00 31 1014.6
20260507152821 71 184 1.0 1.0 0.00 0.00 0.00 31 1014.2
20260507152317 71 191 0.0 1.0 0.00 0.00 0.00 29 1014.3
20260507151813 71 54 1.0 2.0 0.00 0.00 0.00 29 1014.6
20260507151309 71 155 1.0 1.0 0.00 0.00 0.00 28 1014.5
20260507150806 71 197 0.0 0.0 0.00 0.00 0.00 28 1014.6
20260507150303 69 156 1.0 1.0 0.00 0.00 0.00 30 1014.8
20260507145759 69 140 1.0 2.0 0.00 0.00 0.00 30 1014.4
20260507145255 68 172 1.0 1.0 0.00 0.00 0.00 31 1014.5
20260507144753 68 131 2.0 3.0 0.00 0.00 0.00 31 1014.5
20260507144250 67 84 2.0 2.0 0.00 0.00 0.00 33 1014.6
20260507143746 66 186 1.0 2.0 0.00 0.00 0.00 35 1014.6
20260507143244 65 143 1.0 1.0 0.00 0.00 0.00 36 1014.7
20260507142740 64 167 0.0 1.0 0.00 0.00 0.00 37 1014.8
20260507142236 63 173 1.0 1.0 0.00 0.00 0.00 38 1014.7
20260507141733 62 155 3.0 5.0 0.00 0.00 0.00 38 1014.6
20260507141230 62 184 3.0 5.0 0.00 0.00 0.00 38 1014.6
20260507140726 62 176 1.0 1.0 0.00 0.00 0.00 38 1014.7
20260507140224 62 155 0.0 1.0 0.00 0.00 0.00 39 1014.8
20260507135720 61 167 0.0 0.0 0.00 0.00 0.00 39 1014.8
20260507135218 60 168 1.0 1.0 0.00 0.00 0.00 40 1014.5
20260507134714 60 139 1.0 1.0 0.00 0.00 0.00 40 1014.7
20260507134210 59 169 2.0 2.0 0.00 0.00 0.00 42 1014.5
20260507133706 58 181 0.0 1.0 0.00 0.00 0.00 42 1014.6
20260507133203 57 151 1.0 1.0 0.00 0.00 0.00 44 1014.5
20260507132701 57 183 1.0 1.0 0.00 0.00 0.00 44 1014.5
20260507132157 56 177 1.0 1.0 0.00 0.00 0.00 45 1014.6
20260507131654 56 158 0.0 1.0 0.00 0.00 0.00 46 1014.7
20260507131152 55 194 1.0 1.0 0.00 0.00 0.00 46 1014.4
20260507130648 55 181 1.0 2.0 0.00 0.00 0.00 47 1014.4
20260507130146 54 153 2.0 3.0 0.00 0.00 0.00 48 1014.4
20260507125644 54 133 2.0 2.0 0.00 0.00 0.00 49 1014.2
20260507125142 53 182 2.0 3.0 0.00 0.00 0.00 50 1014.3
20260507124637 53 177 0.0 1.0 0.00 0.00 0.00 51 1014.4
20260507124136 52 199 1.0 1.0 0.00 0.00 0.00 52 1014.4
20260507123634 52 147 0.0 1.0 0.00 0.00 0.00 52 1014.1
20260507123130 53 182 1.0 1.0 0.00 0.00 0.00 50 1014.6
20260507122626 53 187 3.0 3.0 0.00 0.00 0.00 49 1014.1
20260507122122 53 192 1.0 2.0 0.00 0.00 0.00 49 1014.1
20260507121618 54 186 0.0 1.0 0.00 0.00 0.00 48 1014.1
20260507121114 53 166 1.0 1.0 0.00 0.00 0.00 48 1014.2
20260507120610 54 164 0.0 0.0 0.00 0.00 0.00 50 1014.1
20260507120107 55 182 1.0 1.0 0.00 0.00 0.00 48 1014.1
20260507115603 54 122 1.0 1.0 0.00 0.00 0.00 47 1014.2
20260507115059 54 180 0.0 1.0 0.00 0.00 0.00 48 1014.1
20260507114555 55 197 2.0 3.0 0.00 0.00 0.00 48 1014.2
20260507114053 55 182 0.0 1.0 0.00 0.00 0.00 48 1014.1
20260507113549 54 189 1.0 1.0 0.00 0.00 0.00 48 1014.1
20260507113047 54 166 1.0 1.0 0.00 0.00 0.00 49 1014.3
20260507112545 54 147 2.0 2.0 0.00 0.00 0.00 49 1014.2
20260507112041 53 193 0.0 1.0 0.00 0.00 0.00 51 1014.3
20260507111538 54 181 1.0 2.0 0.00 0.00 0.00 51 1014.2
20260507111035 54 195 3.0 3.0 0.00 0.00 0.00 50 1014.3
20260507110531 54 204 4.0 6.0 0.00 0.00 0.00 49 1014.1
20260507110028 54 190 5.0 5.0 0.00 0.00 0.00 49 1014.0
20260507105525 54 172 2.0 2.0 0.00 0.00 0.00 49 1014.1
20260507105021 55 171 3.0 5.0 0.00 0.00 0.00 47 1014.3
20260507104518 55 171 1.0 1.0 0.00 0.00 0.00 46 1014.3
20260507104015 55 108 1.0 2.0 0.00 0.00 0.00 46 1014.1
20260507103511 55 151 3.0 3.0 0.00 0.00 0.00 46 1014.2
20260507103007 55 165 3.0 5.0 0.00 0.00 0.00 46 1014.3
20260507102504 55 170 3.0 5.0 0.00 0.00 0.00 47 1014.2
20260507102000 55 183 1.0 1.0 0.00 0.00 0.00 48 1014.2
20260507101455 56 194 2.0 2.0 0.00 0.00 0.00 47 1014.4
20260507100952 56 175 2.0 2.0 0.00 0.00 0.00 46 1014.3
20260507100450 57 137 1.0 1.0 0.00 0.00 0.00 46 1014.0
20260507095948 57 151 2.0 3.0 0.00 0.00 0.00 44 1014.2
20260507095445 56 135 1.0 1.0 0.00 0.00 0.00 47 1014.3
20260507094942 55 178 0.0 0.0 0.00 0.00 0.00 49 1014.3
20260507094438 56 209 1.0 1.0 0.00 0.00 0.00 49 1014.2
20260507093935 56 191 3.0 3.0 0.00 0.00 0.00 48 1014.3
20260507093433 56 185 2.0 2.0 0.00 0.00 0.00 47 1014.4
20260507092931 56 185 0.0 0.0 0.00 0.00 0.00 47 1014.2
20260507092427 57 181 1.0 1.0 0.00 0.00 0.00 46 1014.4
20260507091924 57 168 0.0 1.0 0.00 0.00 0.00 45 1014.4
20260507091420 57 187 0.0 0.0 0.00 0.00 0.00 45 1014.4
20260507090916 57 144 1.0 1.0 0.00 0.00 0.00 44 1014.6
20260507090412 58 189 1.0 1.0 0.00 0.00 0.00 43 1014.5
20260507085909 58 208 1.0 1.0 0.00 0.00 0.00 44 1014.4
20260507085406 58 227 0.0 0.0 0.00 0.00 0.00 43 1014.4
20260507084903 58 160 0.0 1.0 0.00 0.00 0.00 43 1014.4
20260507084400 58 181 1.0 1.0 0.00 0.00 0.00 43 1014.7
20260507083857 59 183 0.0 0.0 0.00 0.00 0.00 42 1014.6
20260507083353 59 174 1.0 1.0 0.00 0.00 0.00 42 1014.7
20260507082850 59 142 1.0 1.0 0.00 0.00 0.00 43 1014.7
20260507082345 59 145 1.0 1.0 0.00 0.00 0.00 42 1015.0
20260507081843 59 177 1.0 2.0 0.00 0.00 0.00 42 1014.9
20260507081339 59 179 2.0 3.0 0.00 0.00 0.00 41 1014.6
20260507080836 60 189 3.0 3.0 0.00 0.00 0.00 42 1014.6
20260507080332 60 199 1.0 2.0 0.00 0.00 0.00 39 1014.8
20260507075828 60 165 2.0 2.0 0.00 0.00 0.00 39 1014.6
20260507075324 60 148 1.0 2.0 0.00 0.00 0.00 39 1014.6
20260507074820 60 200 1.0 2.0 0.00 0.00 0.00 39 1014.7
20260507074318 61 189 1.0 2.0 0.00 0.00 0.00 39 1014.7
20260507073815 61 187 1.0 2.0 0.00 0.00 0.00 38 1014.6
20260507073312 61 155 0.0 0.0 0.00 0.00 0.00 37 1014.4
20260507072809 61 152 0.0 1.0 0.00 0.00 0.00 37 1014.6
20260507072308 61 161 0.0 1.0 0.00 0.00 0.00 39 1014.7
20260507071803 61 187 0.0 0.0 0.00 0.00 0.00 39 1014.5
20260507071300 61 177 1.0 1.0 0.00 0.00 0.00 37 1014.7
20260507070756 61 195 0.0 1.0 0.00 0.00 0.00 38 1014.5
20260507070254 61 185 0.0 0.0 0.00 0.00 0.00 38 1014.8
20260507065750 62 192 0.0 0.0 0.00 0.00 0.00 38 1014.6
20260507065247 62 190 1.0 1.0 0.00 0.00 0.00 37 1014.5
20260507064744 62 192 1.0 1.0 0.00 0.00 0.00 37 1014.6
20260507064243 63 172 2.0 2.0 0.00 0.00 0.00 36 1014.7
20260507063740 63 186 2.0 3.0 0.00 0.00 0.00 35 1014.6
20260507063237 63 192 0.0 1.0 0.00 0.00 0.00 35 1014.7
20260507062734 63 141 1.0 1.0 0.00 0.00 0.00 35 1014.6
20260507062231 63 143 2.0 2.0 0.00 0.00 0.00 34 1014.4
20260507061730 64 194 1.0 1.0 0.00 0.00 0.00 35 1014.6
20260507061227 64 199 0.0 1.0 0.00 0.00 0.00 35 1014.5
20260507060725 64 189 1.0 1.0 0.00 0.00 0.00 35 1014.5
20260507060221 64 184 3.0 5.0 0.00 0.00 0.00 36 1014.5
20260507055717 64 179 0.0 0.0 0.00 0.00 0.00 35 1014.2
20260507055213 65 169 0.0 1.0 0.00 0.00 0.00 33 1014.4
20260507054709 66 231 1.0 1.0 0.00 0.00 0.00 32 1014.4
20260507054206 66 195 0.0 0.0 0.00 0.00 0.00 30 1014.1
20260507053704 66 177 0.0 0.0 0.00 0.00 0.00 32 1014.2
20260507053202 66 232 1.0 1.0 0.00 0.00 0.00 30 1014.3
20260507052701 66 189 0.0 0.0 0.00 0.00 0.00 31 1014.3
20260507052156 66 169 0.0 0.0 0.00 0.00 0.00 32 1014.2
20260507051654 67 270 0.0 0.0 0.00 0.00 0.00 30 1014.2
20260507051150 67 200 0.0 0.0 0.00 0.00 0.00 29 1014.1
20260507050647 67 142 0.0 0.0 0.00 0.00 0.00 29 1014.1
20260507050144 67 199 0.0 0.0 0.00 0.00 0.00 28 1014.2
20260507045641 67 161 0.0 0.0 0.00 0.00 0.00 29 1014.2
20260507045137 68 189 0.0 0.0 0.00 0.00 0.00 29 1014.0
20260507044634 68 229 1.0 1.0 0.00 0.00 0.00 27 1014.1
20260507044131 68 180 0.0 0.0 0.00 0.00 0.00 30 1014.0
20260507043627 68 310 1.0 1.0 0.00 0.00 0.00 28 1014.1
20260507043124 69 336 1.0 1.0 0.00 0.00 0.00 29 1014.1
20260507042620 69 329 1.0 1.0 0.00 0.00 0.00 29 1014.0
20260507042116 69 348 2.0 2.0 0.00 0.00 0.00 26 1014.0
20260507041613 69 107 0.0 1.0 0.00 0.00 0.00 27 1014.0
20260507041110 70 47 2.0 2.0 0.00 0.00 0.00 26 1013.7
20260507040607 70 206 0.0 1.0 0.00 0.00 0.00 29 1014.0
20260507035559 71 311 2.0 2.0 0.00 0.00 0.00 26 1013.5
20260507035055 71 277 3.0 3.0 0.00 0.00 0.00 25 1013.6
20260507034552 71 305 3.0 5.0 0.00 0.00 0.00 25 1013.6
20260507034050 71 258 1.0 1.0 0.00 0.00 0.00 26 1013.5
20260507033548 71 289 1.0 2.0 0.00 0.00 0.00 24 1013.5
20260507033044 71 327 2.0 2.0 0.00 0.00 0.00 25 1013.5
20260507032542 71 251 1.0 1.0 0.00 0.00 0.00 25 1013.3
20260507032038 71 211 2.0 2.0 0.00 0.00 0.00 25 1013.2
20260507031534 72 198 1.0 2.0 0.00 0.00 0.00 26 1013.3
20260507031032 71 191 1.0 2.0 0.00 0.00 0.00 25 1013.5
20260507030528 72 255 1.0 1.0 0.00 0.00 0.00 26 1013.2
20260507030026 72 301 1.0 2.0 0.00 0.00 0.00 26 1013.0
20260507025523 72 294 3.0 3.0 0.00 0.00 0.00 26 1013.2
20260507025020 72 259 1.0 1.0 0.00 0.00 0.00 27 1013.2
20260507024518 72 313 3.0 3.0 0.00 0.00 0.00 24 1012.9
20260507024014 72 255 1.0 1.0 0.00 0.00 0.00 27 1012.9
20260507023510 72 324 3.0 3.0 0.00 0.00 0.00 25 1012.9
20260507023008 72 310 3.0 3.0 0.00 0.00 0.00 25 1012.9
20260507022505 73 330 3.0 3.0 0.00 0.00 0.00 24 1013.0
20260507022000 73 314 4.0 5.0 0.00 0.00 0.00 24 1013.0
20260507021456 73 344 3.0 3.0 0.00 0.00 0.00 26 1012.9
20260507020953 73 351 3.0 3.0 0.00 0.00 0.00 26 1013.1
20260507020450 73 321 2.0 2.0 0.00 0.00 0.00 26 1013.1
20260507015947 73 294 3.0 5.0 0.00 0.00 0.00 28 1012.8
20260507015446 74 308 2.0 2.0 0.00 0.00 0.00 27 1012.9
20260507014942 74 10 2.0 2.0 0.00 0.00 0.00 25 1012.7
20260507014439 75 326 3.0 3.0 0.00 0.00 0.00 27 1012.7
20260507013935 75 330 1.0 2.0 0.00 0.00 0.00 25 1013.0
20260507013432 75 333 3.0 3.0 0.00 0.00 0.00 25 1012.7
20260507012929 75 342 2.0 3.0 0.00 0.00 0.00 25 1012.8